GSAT-15

Last updated on Sun Jun 21 2026 00:03:06 GMT+0000 (Coordinated Universal Time)

1 41028U 15065A 26171.05407052 -.00000263 00000+0 00000+0 0 9992 2 41028 0.0623 264.3518 0004380 166.6119 310.2862 1.00272702 38826
UTC large
Height (km)
Speed (km/s)
/
Latitude / Longitude
Inclination (degrees)
Orbital Period (minutes)
Azimuth
Elevation
Range (km)
Doppler Factor

Next 0 passes for location: London (51.5072 / 0.1276)

No passes found over London.
GSAT-15